Flag for U.S.A. Weather past 2 weeks in Burbank, California, U.S.A.

Now
74 °F

Sunny.


Feels Like: 76 °F
Forecast: 54 / 76 °F
Wind: 9 mph from Northwest

Location: Burbank-Glendale-Pasadena Airport

Current Time: Apr 26, 2015 at 1:03:32 PM

Latest Report: Apr 26, 2015 at 11:53 AM


Visibility: 10 mi

Pressure: 29.94 "Hg

Humidity: 27%

Dew point: 38 °F

Location of BurbankLocation

Historic Weather in Burbank — Graph

°F

Burbank temperature yesterday

Maximum temperature yesterday: 62 °F (at 10:53 AM)
Minimum temperature yesterday: 55 °F (at 10:53 PM)
Average temperature yesterday: 58 °F

Past Weeks' High & Low Weather Summary

 TemperatureHumidityPressure
High83 °F (Apr 17, 1:53 PM)88% (Apr 14, 3:55 AM)30.08 "Hg (Apr 14, 3:55 AM)
Low52 °F (Apr 12, 6:53 AM)7% (Apr 16, 10:53 AM)29.78 "Hg (Apr 20, 5:53 PM)
Average64 °F52%29.92 "Hg
* Reported Apr 11 11:53 AM — Apr 26 11:53 AM, Burbank, Weather by CustomWeather, © 2015

Note: Actual official high and low records may vary slightly from our data, if they occured in-between our weather recording intervals... More about our weather records

Advertising

Burbank weather history for previous 24 hours

 ConditionsComfort  
Time TempWeatherWind HumidityBarometerVisibility
11:53 AM
Sun, Apr 26
74 °FSunny.9 mph27%29.94 "Hg10 mi
10:53 AM71 °FSunny.12 mph31%29.96 "Hg10 mi
9:53 AM67 °FSunny.8 mph36%29.96 "Hg10 mi
8:53 AM65 °FSunny.12 mph40%29.96 "Hg10 mi
7:53 AM62 °FSunny.10 mph44%29.95 "Hg10 mi
6:53 AM59 °FClear.10 mph49%29.93 "Hg10 mi
5:53 AM59 °FClear.No wind48%29.92 "Hg10 mi
4:53 AM60 °FClear.5 mph47%29.90 "Hg10 mi
3:53 AM61 °FClear.14 mph46%29.89 "Hg10 mi
2:53 AM62 °FClear.14 mph46%29.88 "Hg10 mi
1:53 AM55 °FClear.No wind80%29.89 "Hg10 mi
12:53 AM55 °FClear.14 mph80%29.88 "Hg10 mi
11:53 PM
Sat, Apr 25
57 °FClear.6 mph69%29.88 "Hg10 mi
10:53 PM55 °FClear.6 mph80%29.87 "Hg10 mi
9:53 PM57 °FClear.7 mph74%29.86 "Hg10 mi
8:53 PM59 °FClear.3 mph72%29.85 "Hg10 mi
7:53 PM60 °FPassing clouds.No wind83%29.84 "Hg10 mi
6:53 PM61 °FBroken clouds.5 mph83%29.84 "Hg10 mi
5:53 PM62 °FMostly cloudy.No wind75%29.82 "Hg10 mi
4:53 PM59 °FCloudy.5 mph87%29.84 "Hg10 mi
3:53 PM58 °FHeavy rain. Fog.No wind87%29.86 "Hg2 mi
2:53 PM57 °FLight rain. Fog.5 mph87%29.88 "Hg2 mi
2:02 PM59 °FLight rain. Overcast.7 mph77%29.94 "Hg7 mi
Weather by CustomWeather, © 2015

See weather overviewHow to use our weather pages